Location: Sears
(37.7625°N, 100.1060°W)
Time: 05:47:25
(UTC+00:00)

X-37B - Pass Details

Date: 03 August 2021
Orbit: 381 x 393 km, 45.0° (Epoch: 29 August)

Event Time Altitude Azimuth Distance (km) Brightness Sun altitude
Exits shadow 10:53:39 - 283° (WNW) 1,523 3.2 -10.0°
Reaches altitude 10° 10:54:00 10° 286° (WNW) 1,395 3.0 -10.0°
Maximum altitude 10:56:44 27° 347° (NNW) 774 2.3 -9.5°
Drops below altitude 10° 10:59:29 10° 48° (NE) 1,398 4.9 -9.0°
Sets 11:01:45 0° 61° (ENE) 2,254 7.0 -8.7°
